This is the latest recevied weather packets stored in our database for station/object SR5MRF. If no packets are shown the sender has not sent any weather packets the latest 10 day(s).
| Time | Temp. | Humidity | Pressure | Rain* | Wind** | Luminosity | Snow |
|---|---|---|---|---|---|---|---|
| 1777536951 | 10.56° C | 43% | 1028.6 hPa | 0 mm | - | - | - |
| 1777536531 | 10.56° C | 42% | 1028.7 hPa | 0 mm | - | - | - |
| 1777536111 | 10.56° C | 43% | 1028.6 hPa | 0 mm | - | - | - |
| 1777535932 | 10.56° C | 43% | 1028.5 hPa | 0 mm | - | - | - |
| 1777535691 | 10.56° C | 43% | 1028.6 hPa | 0 mm | - | - | - |
| 1777535332 | 10.56° C | 43% | 1028.6 hPa | 0 mm | - | - | - |
| 1777535271 | 10.56° C | 43% | 1028.7 hPa | 0 mm | - | - | - |
| 1777534851 | 10.56° C | 44% | 1028.5 hPa | 0 mm | - | - | - |
| 1777534732 | 10.56° C | 44% | 1028.6 hPa | 0 mm | - | - | - |
| 1777534431 | 10.56° C | 44% | 1028.4 hPa | 0 mm | - | - | - |
| 1777534132 | 11.11° C | 44% | 1028.5 hPa | 0 mm | - | - | - |
| 1777534011 | 11.11° C | 44% | 1028.5 hPa | 0 mm | - | - | - |
| 1777533591 | 11.11° C | 44% | 1028.6 hPa | 0 mm | - | - | - |
| 1777533532 | 11.11° C | 44% | 1028.6 hPa | 0 mm | - | - | - |
| 1777533171 | 11.11° C | 45% | 1028.6 hPa | 0 mm | - | - | - |
| 1777532932 | 11.11° C | 45% | 1028.6 hPa | 0 mm | - | - | - |
| 1777532751 | 11.11° C | 45% | 1028.6 hPa | 0 mm | - | - | - |
| 1777532331 | 11.67° C | 45% | 1028.7 hPa | 0 mm | - | - | - |
| 1777531911 | 11.67° C | 46% | 1028.6 hPa | 0 mm | - | - | - |
| 1777531491 | 11.11° C | 47% | 1028.7 hPa | 0 mm | - | - | - |
| 1777531132 | 10.56° C | 49% | 1028.6 hPa | 0 mm | - | - | - |
| 1777531071 | 10.56° C | 49% | 1028.6 hPa | 0 mm | - | - | - |
| 1777530651 | 9.44° C | 50% | 1028.7 hPa | 0 mm | - | - | - |
| 1777530532 | 9.44° C | 50% | 1028.7 hPa | 0 mm | - | - | - |
| 1777530231 | 9.44° C | 51% | 1028.6 hPa | 0 mm | - | - | - |
* Rain latest hour (hover to see other rain measurements)
** Current wind speed in m/s (hover to see current wind gust speed)